Powrót do katalogu

STARLINK-11233

AktywnyŁącznośćVLEO
NORAD 61061·PAYLOAD·🇺🇸 United States

Wystrzelony Sep 13, 2024 z Vandenberg Space Force Base

Loading…

Następne Przeloty (najbliższe 24 godziny)

TLE

ŚwieżeSource: CelesTrak SupGP

Epoka: Sep 15, 2026, 03:02 UTC

1 61061C 24164M   26258.12687500  .00033942  00000+0  27940-3 0  2586
2 61061  53.1566  97.5391 0000938  86.8089 156.4189 15.69709190    17

Śledź STARLINK-11233 w czasie rzeczywistym z AllMySat

Download on the App Store